1st Responders/1st Detectors/Storm Spotters Weather Summary for Powell County, KY

Forecast Maps


Reg. NEXRAD Animation


National Fire Danger: Day 1 & 2 Map

Current NWS Watch/Warnings

SPC Convective Day 1 Outlook


Day 2 Outlook

(Click images to enlarge|Page will refresh every 5 minutes)
UK Ag. Weather Center Desktop Severe Weather Service[HERE]
Powell County, KY Hazardous Weather Outlook Webcast
(9 AM to 9 PM Mon-Fri)
[Fast]
[Dial-up]


UKAWC 1st Detectors/1st Responders Precision Weather Forecast For POWELL County, Kentucky
(based on the NWS County Digital Forecast)

ISSUED AT 17:00 UTC ON SUNDAY DEC 05 2021
DAY SUNDAY
EDT 3HR 2P 3P 4P 5P 6P 7P
MAX/MIN -- -- -- -- -- 61°
TEMP 58° 61° 61° 61° 61° 58°
SKY COVER 82% 76% 69% 63% 70% 76%
Clouds
DEW PT 47° 49° 50° 52° 52° 52°
RH 68% 67% 67% 69% 72% 77%
POP 12HR -- -- -- -- -- --
RAIN/SNOW (liq.equ) 0.00in -- -- -- -- --
SNOWFALL 0in -- -- -- -- --
WIND SPEED(MPH) 7 8 8 7 7 7
WIND Gust(MPH) 15 15 15 15 14 10
WIND DIR S S S S S S
DEW -- -- -- Lgt Dew Lgt Dew Lgt Dew
HeatIndex 58 61 61 61 61 58
Snow -- -- -- -- -- --
Rain -- -- -- -- -- --
Rain Showers -- -- -- -- -- --
Thunder Storm -- -- -- -- -- --
WIND CHILL -- -- -- -- -- --
SPRAY COND
DRY COND
LIVESTOCK COLDSTRESS



DAY MONDAY TUESDAY WEDNESDAY THURSDAY FRIDAY SATURDAY
EDT 6HR 8P 9P 10P 11P MIDN 1A 2A 3A 4A 5A 6A 7A 8A 9A 10A 11A NOON 1P 2P 3P 4P 5P 6P 7P 8P 9P 10P 11P MIDN 1A 2A 5A 8A 11A 2P 5P 8P 2A 8A 2P 8P 2A 8A 2P 8P 2A 8A 2P 8P 2A 8A 2P 8P
MAX/MIN -- -- -- -- -- -- -- -- -- -- -- -- 54° -- -- -- -- -- -- -- -- -- -- 58° -- -- -- -- -- -- -- -- 22° -- -- 40° -- -- 29° 41° -- -- 27° 50° -- -- 38° 61° -- -- 52° 65° --
TEMP 58° 58° 58° 58° 58° 58° 56° 58° 58° 58° 58° 56° 56° 54° 54° 52° 49° 47° 45° 45° 43° 43° 40° 38° 36° 32° 31° 29° 29° 27° 27° 25° 22° 29° 36° 38° 34° 31° 31° 38° 34° 29° 27° 45° 45° 43° 43° 58° 58° 58° 58° 61° 56°
SKY COVER 83% 82% 80% 79% 80% 82% 83% 88% 92% 97% 98% 98% 99% 99% 98% 98% 86% 74% 62% 56% 50% 44% 33% 22% 30% 27% 24% 21% 24% 27% 30% 33% 48% 47% 44% 66% 89% 91% 90% 62% 59% 50% 57% 45% 55% 60% 63% 71% 79% 78% 86% 70% 85%
Clouds
DEW PT 52° 52° 52° 52° 52° 54° 54° 54° 54° 56° 56° 56° 56° 54° 54° 49° 45° 43° 38° 36° 31° 29° 27° 27° 25° 25° 23° 22° 22° 22° 22° 20° 18° 20° 20° 20° 20° 22° 25° 29° 27° 25° 23° 32° 36° 38° 40° 49° 52° 54° 54° 58° 54°
RH 80% 83% 83% 80% 83% 86% 89% 89% 89% 92% 92% 96% 96% 99% 100% 92% 85% 82% 76% 70% 61% 57% 61% 64% 66% 72% 71% 74% 77% 77% 81% 81% 84% 68% 49% 48% 58% 69% 78% 70% 75% 84% 84% 60% 70% 85% 88% 74% 80% 89% 89% 86% 92%
POP 12HR 12% -- -- -- -- -- -- -- -- -- -- -- 97% -- -- -- -- -- -- -- -- -- -- -- 93% -- -- -- -- -- -- -- 4% -- -- -- 15% -- 43% -- 42% -- 7% -- 15% -- 24% -- 34% -- 56% -- 71%
RAIN/SNOW (liq.equ) 0.00in -- -- -- -- -- 0.09in -- -- -- -- -- 0.46in -- -- -- -- -- 0.34in -- -- -- -- -- 0.00in -- -- -- -- -- 0.00in -- 0.00in -- 0.00in -- 0.00in 0.00in 0.05in -- -- -- -- -- -- -- -- -- -- -- -- -- --
SNOWFALL 0in -- -- -- -- -- 0in -- -- -- -- -- 0in -- -- -- -- -- 0in -- -- -- -- -- 0in -- -- -- -- -- 0in -- 0in -- 0in -- 0in 0in 0in -- -- -- -- -- -- -- -- -- -- -- -- -- --
WIND SPEED(MPH) 7 8 8 9 9 9 9 9 10 10 10 9 9 9 9 9 9 9 9 9 9 9 7 6 5 2 2 2 1 1 1 0 1 2 1 1 2 1 1 1 1 1 2 5 6 6 5 8 8 8 7 9 7
WIND DIR S S S S S S S S S S SW SW SW W W W NW NW W W NW NW NW W W W NW NW NW NW NW N NE E NE NE NE NE NE NW N E E SE S S S S S S S SW SW
HeatIndex 58 58 58 58 58 58 56 58 58 58 58 56 56 54 54 52 49 47 45 39 38 37 34 33 32 29 28 26 29 27 27 25 22 26 36 38 31 31 31 38 34 29 24 45 41 39 40 58 58 58 58 61 56
Snow -- -- -- -- -- -- -- -- -- -- -- -- -- -- -- -- -- -- -- -- -- -- -- -- -- -- -- -- -- -- -- -- -- -- -- -- Slight Chance Chance Chance -- -- -- -- -- -- -- -- -- -- -- -- -- --
Rain -- -- -- -- -- -- -- -- -- -- -- -- -- -- -- -- -- -- -- -- -- -- -- -- -- -- -- -- -- -- -- -- -- -- -- -- Slight Chance -- -- Slight Chance -- -- -- -- -- -- -- -- -- -- -- -- --
Rain Showers Slight Chance Chance Chance Chance Chance Chance Likely Likely Likely Definite Definite Definite Definite Definite Likely Chance Chance Slight Chance -- -- -- -- -- -- -- -- -- -- -- -- -- -- -- -- -- -- -- -- -- -- -- -- -- -- Slight Chance Slight Chance Chance Chance Chance Chance Likely Likely Likely
Thunder Storm -- -- -- -- -- -- Slight Chance Slight Chance Slight Chance Slight Chance Slight Chance Slight Chance Slight Chance Slight Chance -- -- -- -- -- -- -- -- -- -- -- -- -- -- -- -- -- -- -- -- -- -- -- -- -- -- -- -- -- -- -- -- -- -- -- -- -- -- --
WIND CHILL -- -- -- -- -- -- -- -- -- -- -- -- -- -- -- -- -- -- 40° 40° 38° 38° 35° 34° 32° -- -- -- -- -- -- -- -- -- -- -- -- -- -- -- -- -- -- 43° 42° 39° 40° -- -- -- -- -- --
SPRAY COND
DRY COND
LIVESTOCK COLDSTRESS

Click on individual weather variable above in left-hand column (ie., TEMP, RH, QPF 12HR) to view state forecast maps






NWS 48 Hr. Forecast Maps,

Regional Hourly Observations For POWELL County, Kentucky
Issued at 1200 PM EST SUN DEC 05 2021
NORTHEAST KENTUCKY
  
CITY           SKY/WX    TMP DP  RH WIND       PRES   REMARKS
LEXINGTON      SUNNY     54  39  57 S12       30.02F                  
COVINGTON      CLOUDY    47  30  51 SE13      30.02F                  
FRANKFORT      MOSUNNY   55  38  52 S7        30.02F                  


Current NOWCAST not available:
Nowcasts are not issued routinely during fair weather. Only when
precipitation or other significant weather is occuring in this county will these
forecasts be issued. Currently, there is no short term forecast in effect.


Fire Weather Forecast For POWELL County, KY
Provided by the National Weather Service:

Issued at: Sun Dec 5 12:05:01 EST 2021

616 AM EST Sun Dec 5 2021

                      Today        Tonight      Mon          

Cloud Cover           Pcldy        Mcldy        Mcldy        
Chance precip (%)     10           100          100          
Precip type           None         showers      showers        
Temp (24H TREND)      61 (+5)      52 (+19)     59           
Rh % (24H TREND)      55 (+14)     100 (+15)    53           
20ftwnd-AM(mph)       SE 2-6 G15                W 7-11 G20   
20ftwnd-PM(mph)       S 5-9 G18    S 6-10 G20   W 6-10 G20   
Precip duration                    3            2            
Precip begin                       7 PM         Continuing   
Precip end                         Continuing   3 PM         
Precip amount         0.00         0.41         0.39         
LAL                   1            2            2            
Haines Index (MID)    3                         2            
Mixing hgt(ft-AGL)    1200                      2400         
Transport wnd (mph)   S  9                      W 20         
Vent rate (kt-ft)     9328                      42391        
ADI Early             8 Poor       10 Poor      40 Fair      
ADI Late              13 Gen Poor  13 Gen Poor  44 Gen Good  
Max LVORI Early       5            5            5            
Max LVORI Late        4            5            3            

Remarks...None.

SPC's Fire Weather Web Tool (Excellent!), SPC's Fire Weather Outlooks, NWS Fire Weather WEB, Fire Danger Class Map,
Keetch-Byram Drought Index, ROMAN Web, Haines Index ,
WFAS's 10-hr Dead Fuel Moist., WFAS's 100-hr Dead Fuel Moist., Probablity of Ignition, Visual blackness Map, Palmer Drought Index, HPC's Rainfall Forecast Maps


Hazardous Weather Outlook For POWELL County, Kentucky
507 AM EST Sun Dec 5 2021

 DAY ONE  Today and Tonight.

There is a slight chance of thunderstorms late tonight. Should
they occur, they may produce strong wind gusts, especially in the
vicinity of Lake Cumberland.

 DAYS TWO THROUGH SEVEN  Monday through Saturday.

There is a slight chance of thunderstorm Monday morning.

There is a chance for light snow accumulations in many locations 
Tuesday night into early Wednesday. However, confidence in this 
potential event is low at this time.

 SPOTTER INFORMATION STATEMENT  

Spotter activation is not anticipated.

Latest POWELL County, Kentucky Watches, Warnings and Advisories.
Additional Drought Info.: UKAWC Drought Page, Kentucky Drought Watch


7-Day Forecast For POWELL County, KY

TODAY
Mostly cloudy. A slight chance of sprinkles early. Highs in the lower 60s. Light winds becoming south around 10 mph in the afternoon.

TONIGHT
Milder. A chance of showers in the evening, then showers and a slight chance of thunderstorms late. Near steady temperatures in the upper 50s. South winds around 10 mph. Chance of rain near 100 percent.

MONDAY
Rain showers and a slight chance of thunderstorms in the morning, then partly sunny in the afternoon. Highs in the upper 50s. Temperatures falling into the upper 30s in the afternoon. West winds around 10 mph. Chance of rain near 100 percent.

MONDAY NIGHT
Much cooler. Partly cloudy. Lows in the mid 20s. Light winds.

TUESDAY
Partly sunny. A 20 percent chance of rain or snow in the afternoon. Highs around 40. Light winds.

TUESDAY NIGHT
Cloudy with a 40 percent chance of snow. Lows around 30.

WEDNESDAY
Partly sunny with a 40 percent chance of rain or snow. Highs in the lower 40s.

WEDNESDAY NIGHT
Mostly cloudy. Lows in the mid 20s.

THURSDAY
Mostly sunny. Highs in the lower 50s.

THURSDAY NIGHT
Mostly cloudy with a 20 percent chance of rain showers. Near steady temperatures in the lower 40s.

FRIDAY
Partly sunny with a 30 percent chance of showers. Highs in the lower 60s.

FRIDAY NIGHT
Mostly cloudy with a 50 percent chance of showers. Lows in the lower 50s.

SATURDAY
Mostly cloudy with showers likely. Highs in the mid 60s. Chance of rain 70 percent.

Ag Weather Center, Department of Biosystems & Agricultural Engineering, University of Kentucky